Regional Weather Roundup
Issued by NWS

Home | Current Version | Previous Version | Graphics & Text | Print | Product List | Glossary On
Versions: 1 2 3 4 5 6 7 8 9 10 11 12 13 14 15 16 17 18 19 20 21 22 23 24 25 26 27 28 29 30 31 32 33 34 35 36 37 38 39 40 41 42 43 44 45 46 47 48 49 50
000
ASUS43 KLSX 211407
RWRMO

WEATHER SUMMARY FOR MISSOURI
NATIONAL WEATHER SERVICE SPRINGFIELD MO
900 AM CDT THU AUG 21 2014

NOTE: "FAIR" INDICATES FEW OR NO CLOUDS BELOW 12,000 FEET WITH NO
       SIGNIFICANT WEATHER AND/OR OBSTRUCTIONS TO VISIBILITY.
       CURRENT SKY AND/OR WEATHER CONDITIONS ARE NOT AVAILABLE FOR
       CHILLICOTHE AND FARMINGTON.

MOZ001>031-035>038-043-044-053-054-211500-
...NORTHERN AND WESTERN MISSOURI...

CITY           SKY/WX    TMP DP  RH WIND       PRES   REMARKS
KANSAS CTY INT PTSUNNY   82  72  71 SW16      29.91S
KANSAS C DTWN  SUNNY     83  71  67 SW13G22   29.91R
LEE`S SUMMIT   SUNNY     80  71  74 SW14      29.94R
ST JOSEPH      PTSUNNY   80  72  76 S14       29.87S
CHILLICOTHE      N/A     78  70  76 S12G18    29.91S
KIRKSVILLE     MOSUNNY   78  70  76 SW10G20   29.93F

$$
MOZ066>068-077>081-088>096-101>105-211500-
...SOUTHWEST MISSOURI...

CITY           SKY/WX    TMP DP  RH WIND       PRES   REMARKS
SPRINGFIELD    MOSUNNY   80  70  71 S14       30.03R
JOPLIN         SUNNY     82  70  66 S17G24    30.00R

$$
MOZ032>034-039>042-045>050-055>058-069>072-211500-
...CENTRAL MISSOURI...

CITY           SKY/WX    TMP DP  RH WIND       PRES   REMARKS
COLUMBIA       SUNNY     77  71  82 S10       29.98R
JEFFERSON CITY SUNNY     78  70  76 S6        29.98S
ROLLA          SUNNY     78  70  76 SW15      30.01R
SEDALIA        SUNNY     81  71  71 SW14      29.97R
WHITEMAN AFB   SUNNY     79  66  65 SW17G24   29.95R
OSAGE BEACH    SUNNY     81  70  69 S8        30.00R

$$
MOZ051-052-059>065-211500-
...EAST CENTRAL MISSOURI...

CITY           SKY/WX    TMP DP  RH WIND       PRES   REMARKS
ST LOUIS INTL  PTSUNNY   82  71  69 SW13G20   30.01R
SPIRIT OF STL  SUNNY     80  71  74 SW10      29.99R
ST CHARLES     SUNNY     79  71  76 SW3       30.00R

$$
MOZ072>076-082>087-097>100-106>115-211500-
...SOUTH CENTRAL AND SOUTHEAST MISSOURI...

CITY           SKY/WX    TMP DP  RH WIND       PRES   REMARKS
CAPE GIRARDEAU SUNNY     81  74  79 SW10      30.05R
FARMINGTON     SUNNY     82  72  69 SW13      30.07R
POPLAR BLUFF   SUNNY     80  71  74 S7        30.04S
WEST PLAINS    SUNNY     80  71  74 SW8       30.08R

$$


USA.gov is the U.S. government's official web portal to all federal, state and local government web resources and services.